Flag for U.S.A. Weather past 2 weeks in Waterbury, Connecticut, U.S.A.

Now
37 °F

Partly sunny.


Feels Like: 33 °F
Forecast: 32 / 41 °F
Wind: 6 mph from Northwest

Location: Oxford

Current Time: Dec 18, 2014 at 4:55:14 PM

Latest Report: Dec 18, 2014 at 3:52 PM


Visibility: 10 mi

Pressure: 29.89 "Hg

Humidity: 56%

Dew point: 23 °F

Location of WaterburyLocation

Historic Weather in Waterbury — Graph

°F

Waterbury temperature yesterday

Maximum temperature yesterday: 46 °F (at 12:50 PM)
Minimum temperature yesterday: 37 °F (at 10:35 PM)
Average temperature yesterday: 41 °F

Past Weeks' High & Low Weather Summary

 TemperatureHumidityPressure
High46 °F (Dec 17, 12:50 PM)100% (Dec 11, 8:04 AM)30.68 "Hg (Dec 11, 8:04 AM)
Low16 °F (Dec 8, 6:50 AM)33% (Dec 7, 8:55 PM)29.50 "Hg (Dec 10, 2:45 PM)
Average33 °F67%30.05 "Hg
* Reported Dec 3 2:50 PM — Dec 18 2:52 PM, Waterbury, Weather by CustomWeather, © 2014

Note: Actual official high and low records may vary slightly from our data, if they occured in-between our weather recording intervals... More about our weather records

Advertising

Waterbury weather history for previous 24 hours

 ConditionsComfort  
Time TempWeatherWind HumidityBarometerVisibility
2:52 PM
Dec 18
39 °FPartly sunny.6 mph52%29.87 "Hg10 mi
12:52 PM37 °FPartly sunny.6 mph56%29.87 "Hg10 mi
11:52 AM37 °FPartly sunny.10 mph52%29.89 "Hg10 mi
10:45 AM36 °FOvercast.5 mph56%29.91 "Hg10 mi
9:45 AM36 °FMore clouds than sun.10 mph56%29.91 "Hg10 mi
8:45 AM36 °FScattered clouds.9 mph56%29.89 "Hg10 mi
7:45 AM34 °FScattered clouds.6 mph65%29.88 "Hg10 mi
6:45 AM34 °FPassing clouds.9 mph65%29.86 "Hg10 mi
5:45 AM36 °FOvercast.8 mph65%29.84 "Hg10 mi
5:35 AM36 °FMostly cloudy.10 mph65%29.84 "Hg10 mi
5:15 AM36 °FMostly cloudy.10 mph65%29.83 "Hg10 mi
4:55 AM36 °FMostly cloudy.8 mph65%29.84 "Hg10 mi
4:35 AM36 °FOvercast.9 mph65%29.83 "Hg10 mi
4:15 AM36 °FOvercast.6 mph65%29.83 "Hg10 mi
3:55 AM36 °FPartly cloudy.6 mph65%29.83 "Hg10 mi
3:35 AM36 °FOvercast.8 mph65%29.83 "Hg10 mi
3:15 AM37 °FOvercast.7 mph60%29.83 "Hg10 mi
2:55 AM37 °FOvercast.9 mph65%29.82 "Hg10 mi
2:35 AM37 °FOvercast.6 mph65%29.82 "Hg10 mi
2:15 AM37 °FMostly cloudy.8 mph65%29.81 "Hg10 mi
1:55 AM37 °FMostly cloudy.5 mph65%29.81 "Hg10 mi
1:35 AM37 °FMostly cloudy.3 mph65%29.81 "Hg10 mi
1:15 AM37 °FMostly cloudy.5 mph65%29.81 "Hg10 mi
12:55 AM37 °FPassing clouds.6 mph65%29.80 "Hg10 mi
12:35 AM37 °FPassing clouds.5 mph70%29.81 "Hg10 mi
12:15 AM37 °FPassing clouds.5 mph70%29.81 "Hg10 mi
11:55 PM
Dec 17
37 °FPassing clouds.6 mph70%29.82 "Hg10 mi
11:35 PM37 °FMostly cloudy.6 mph70%29.82 "Hg10 mi
11:15 PM37 °FPassing clouds.5 mph70%29.83 "Hg10 mi
10:35 PM37 °FMostly cloudy.6 mph70%29.83 "Hg10 mi
9:55 PM39 °FOvercast.3 mph65%29.84 "Hg10 mi
9:35 PM39 °FMostly cloudy.3 mph65%29.84 "Hg10 mi
9:15 PM39 °FPartly cloudy.5 mph65%29.85 "Hg10 mi
8:52 PM39 °FPassing clouds.7 mph65%29.83 "Hg10 mi
7:52 PM41 °FOvercast.12 mph66%29.83 "Hg10 mi
4:52 PM46 °FOvercast.13 mph66%29.79 "Hg10 mi
Weather by CustomWeather, © 2014

See weather overviewHow to use our weather pages